AI4ZL Weather Reports


time (UTC)temp
C
wind
direction
speed
KPH
gust
KPH
rain 1hr
cm
rain 24hr
cm
rain mn
cm
humidity
%
barometer
mb
20260901222238 36 254 1.6 4.8 0.00 0.00 0.00 52 1017.8
20260901221252 36 268 3.2 6.4 0.00 0.00 0.00 49 1017.9
20260901220246 36 228 1.6 4.8 0.00 0.00 0.00 52 1017.9
20260901215243 36 205 1.6 3.2 0.00 0.00 0.00 52 1017.7
20260901214243 36 223 3.2 6.4 0.00 0.00 0.00 53 1017.9
20260901213238 36 285 1.6 4.8 0.00 0.00 0.00 52 1018.1
20260901212309 36 264 3.2 4.8 0.00 0.00 0.00 52 1017.9
20260901211240 36 116 1.6 3.2 0.00 0.00 0.00 53 1017.9
20260901210233 36 111 1.6 3.2 0.00 0.00 0.00 54 1018.0
20260901205245 36 264 1.6 4.8 0.00 0.00 0.00 52 1018.1
20260901204238 36 180 3.2 4.8 0.00 0.00 0.00 52 1018.1
20260901203310 37 273 1.6 4.8 0.00 0.00 0.00 50 1018.3
20260901202242 37 27 1.6 3.2 0.00 0.00 0.00 53 1018.4
20260901201252 36 33 1.6 4.8 0.00 0.00 0.00 53 1018.4
20260901200303 35 38 3.2 4.8 0.00 0.00 0.00 57 1018.4
20260901195235 34 261 3.2 4.8 0.00 0.00 0.00 59 1018.7
20260901194306 35 304 1.6 4.8 0.00 0.00 0.00 59 1018.9
20260901193239 35 298 0.0 3.2 0.00 0.00 0.00 59 1018.9
20260901192252 34 324 0.0 1.6 0.00 0.00 0.00 60 1019.1
20260901191241 34 278 3.2 9.7 0.00 0.00 0.00 59 1019.2
20260901190231 35 274 3.2 6.4 0.00 0.00 0.00 58 1019.3
20260901185241 35 278 3.2 6.4 0.00 0.00 0.00 58 1019.4
20260901184231 33 281 1.6 4.8 0.00 0.00 0.00 60 1019.5
20260901183243 35 270 4.8 9.7 0.00 0.00 0.00 58 1019.6
20260901182233 35 293 1.6 6.4 0.00 0.00 0.00 58 1019.6
20260901181244 35 266 6.4 14.5 0.00 0.00 0.00 57 1019.6
20260901180307 36 286 3.2 9.7 0.00 0.00 0.00 57 1019.9
20260901175258 34 290 3.2 11.3 0.00 0.00 0.00 60 1019.9
20260901174231 34 259 4.8 14.5 0.00 0.00 0.00 59 1020.0
20260901173243 34 269 6.4 12.9 0.00 0.00 0.00 59 1020.1
20260901172236 34 256 8.0 11.3 0.00 0.00 0.00 60 1020.1
20260901171250 34 255 8.0 12.9 0.00 0.00 0.00 59 1020.3
20260901170305 34 266 9.7 14.5 0.00 0.00 0.00 59 1020.4
20260901165238 34 270 8.0 20.9 0.00 0.00 0.00 59 1020.4
20260901164233 33 274 8.0 16.1 0.00 0.00 0.00 59 1020.3
20260901163244 34 275 6.4 12.9 0.00 0.00 0.00 61 1020.6
20260901162238 33 280 4.8 9.7 0.00 0.00 0.00 63 1020.6
20260901161242 33 279 3.2 4.8 0.00 0.00 0.00 66 1020.7
20260901160306 33 266 4.8 11.3 0.00 0.00 0.00 66 1020.8
20260901155240 33 243 1.6 9.7 0.00 0.00 0.00 67 1020.7
20260901154233 32 261 3.2 9.7 0.00 0.00 0.00 68 1020.7
20260901153248 32 245 1.6 4.8 0.00 0.00 0.00 71 1020.7
20260901152240 32 195 3.2 6.4 0.00 0.00 0.00 71 1020.7
20260901151235 31 228 1.6 6.4 0.00 0.00 0.00 73 1020.7
20260901150249 31 212 1.6 3.2 0.00 0.00 0.00 72 1020.9
20260901145246 31 246 1.6 3.2 0.00 0.00 0.00 74 1020.6
20260901144236 30 162 3.2 4.8 0.00 0.00 0.00 76 1020.6
20260901143249 30 208 3.2 3.2 0.00 0.00 0.00 77 1020.6
20260901142241 30 188 3.2 4.8 0.00 0.00 0.00 77 1020.7
20260901141233 30 264 3.2 4.8 0.00 0.00 0.00 79 1020.6
20260901140248 29 246 1.6 9.7 0.00 0.00 0.00 80 1020.7
20260901135242 28 216 3.2 6.4 0.00 0.00 0.00 81 1020.7
20260901134237 28 261 1.6 3.2 0.00 0.00 0.00 84 1020.8
20260901133249 27 210 1.6 4.8 0.00 0.00 0.00 86 1020.9
20260901132236 27 215 1.6 3.2 0.00 0.00 0.00 88 1020.9
20260901131230 26 190 3.2 4.8 0.00 0.00 0.00 89 1020.9
20260901130305 26 221 1.6 3.2 0.00 0.00 0.00 92 1020.8
20260901125238 25 268 1.6 1.6 0.00 0.00 0.00 96 1020.8
20260901124232 23 0.0 0.0 0.00 0.00 0.00 98 1020.7
20260901123248 23 0.0 0.0 0.00 0.00 0.00 99 1020.6
20260901122306 23 0.0 0.0 0.00 0.00 0.00 99 1020.6
20260901121257 22 0.0 0.0 0.00 0.00 0.00 99 1020.4
20260901120231 22 0.0 0.0 0.00 0.00 0.00 99 1020.3
20260901115247 22 0.0 0.0 0.00 0.00 0.00 99 1020.3
20260901114241 22 0.0 0.0 0.00 0.00 0.00 99 1020.0
20260901113236 22 0.0 0.0 0.00 0.00 0.00 99 1020.0
20260901112231 22 0.0 0.0 0.00 0.00 0.00 99 1019.7
20260901111247 22 0.0 0.0 0.00 0.00 0.00 99 1019.8
20260901110301 22 0.0 0.0 0.00 0.00 0.00 99 1019.7
20260901105235 22 0.0 0.0 0.00 0.00 0.00 99 1019.7
20260901104250 22 0.0 0.0 0.00 0.00 0.00 99 1019.4
20260901103246 22 0.0 0.0 0.00 0.00 0.00 99 1019.3
20260901102241 22 0.0 0.0 0.00 0.00 0.00 99 1019.3
20260901101256 22 0.0 0.0 0.00 0.00 0.00 99 1019.3
20260901100251 22 0.0 0.0 0.00 0.00 0.00 99 1019.3
20260901095246 22 0.0 0.0 0.00 0.00 0.00 99 1019.4
20260901094242 22 0.0 0.0 0.00 0.00 0.00 99 1019.4
20260901093239 22 0.0 0.0 0.00 0.00 0.00 99 1019.2
20260901092234 22 0.0 0.0 0.00 0.00 0.00 99 1019.0
20260901091249 22 0.0 0.0 0.00 0.00 0.00 99 1019.0
20260901090244 22 0.0 0.0 0.00 0.00 0.00 99 1018.9
20260901085239 22 0.0 0.0 0.00 0.00 0.00 99 1018.9
20260901084233 22 0.0 0.0 0.00 0.00 0.00 99 1018.9
20260901083308 22 0.0 0.0 0.00 0.00 0.00 99 1018.8
20260901082242 22 0.0 0.0 0.00 0.00 0.00 99 1018.8
20260901081239 22 0.0 0.0 0.00 0.00 0.00 99 1018.8
20260901080234 22 0.0 0.0 0.00 0.00 0.00 99 1018.8
20260901075250 22 0.0 0.0 0.00 0.00 0.00 99 1018.8
20260901074304 22 0.0 0.0 0.00 0.00 0.00 99 1018.8
20260901073238 22 0.0 0.0 0.00 0.00 0.00 99 1018.6
20260901072233 22 0.0 0.0 0.00 0.00 0.00 99 1018.7
20260901071309 22 0.0 0.0 0.00 0.00 0.00 99 1018.6
20260901070304 22 0.0 0.0 0.00 0.00 0.00 99 1018.6
20260901065239 22 0.0 0.0 0.00 0.00 0.00 99 1018.6
20260901064233 22 0.0 0.0 0.00 0.00 0.00 99 1018.7
20260901063248 22 0.0 0.0 0.00 0.00 0.00 99 1018.6
20260901062244 22 0.0 0.0 0.00 0.00 0.00 99 1018.6
20260901061238 22 0.0 0.0 0.00 0.00 0.00 99 1018.6
20260901060233 22 0.0 0.0 0.00 0.00 0.00 99 1018.8
20260901055248 22 0.0 0.0 0.00 0.00 0.00 99 1018.8
20260901054243 22 0.0 0.0 0.00 0.00 0.00 99 1018.9
20260901053238 22 0.0 0.0 0.00 0.00 0.00 99 1018.9
20260901052233 22 0.0 0.0 0.00 0.00 0.00 99 1018.9
20260901051249 22 0.0 0.0 0.00 0.00 0.00 99 1018.8
20260901050244 22 0.0 0.0 0.00 0.00 0.00 99 1019.0
20260901045238 22 0.0 0.0 0.00 0.00 0.00 99 1018.9
20260901044233 23 0.0 0.0 0.00 0.00 0.00 99 1019.0
20260901043248 22 0.0 0.0 0.00 0.00 0.00 99 1018.8
20260901042305 23 0.0 0.0 0.00 0.00 0.00 99 1018.9
20260901041239 23 0.0 0.0 0.00 0.00 0.00 99 1018.9
20260901040232 23 0.0 0.0 0.00 0.00 0.00 99 1019.0
20260901035248 23 0.0 0.0 0.00 0.00 0.00 99 1019.2
20260901034244 23 0.0 0.0 0.00 0.00 0.00 99 1019.1
20260901033240 23 0.0 0.0 0.00 0.00 0.00 98 1019.1
20260901032255 23 0.0 0.0 0.00 0.00 0.00 98 1019.2
20260901031250 23 0.0 0.0 0.00 0.00 0.00 98 1019.2
20260901030245 23 0.0 0.0 0.00 0.00 0.00 98 1019.2
20260901025241 24 0.0 0.0 0.00 0.00 0.00 98 1019.1
20260901024236 24 0.0 0.0 0.00 0.00 0.00 98 1018.9
20260901023231 24 314 0.0 1.6 0.00 0.00 0.00 97 1018.7
20260901022246 25 0.0 0.0 0.00 0.00 0.00 97 1018.8
20260901021240 25 0.0 0.0 0.00 0.00 0.00 96 1018.8
20260901020234 25 308 0.0 1.6 0.00 0.00 0.00 95 1018.7
20260901015250 25 300 0.0 1.6 0.00 0.00 0.00 94 1018.7
20260901014245 25 325 0.0 1.6 0.00 0.00 0.00 93 1018.5
20260901013300 25 323 0.0 3.2 0.00 0.00 0.00 93 1018.5
20260901012235 25 307 0.0 1.6 0.00 0.00 0.00 93 1018.3
20260901011250 26 310 0.0 1.6 0.00 0.00 0.00 93 1018.1
20260901010305 26 306 1.6 1.6 0.00 0.00 0.00 90 1018.0
20260901005240 27 316 0.0 1.6 0.00 0.00 0.00 87 1017.9
20260901004234 27 0.0 0.0 0.00 0.00 0.00 84 1017.8
20260901003249 28 335 0.0 1.6 0.00 0.00 0.00 82 1017.8
20260901002305 30 0.0 0.0 0.00 0.00 0.00 79 1017.7
20260901001239 31 0.0 0.0 0.00 0.00 0.00 75 1017.6
20260901000233 31 0.0 0.0 0.00 0.00 0.00 73 1017.6
20260831235248 32 1 0.0 1.6 0.00 0.00 0.00 68 1017.6
20260831234244 33 11 0.0 1.6 0.00 0.00 0.00 64 1017.7
20260831233238 33 0.0 0.0 0.00 0.00 0.00 63 1017.9
20260831232232 33 329 0.0 1.6 0.00 0.00 0.00 62 1018.0
20260831231246 33 53 1.6 3.2 0.00 0.00 0.00 62 1017.9
20260831230241 33 73 1.6 3.2 0.00 0.00 0.00 61 1017.9
20260831225236 33 180 1.6 4.8 0.00 0.00 0.00 59 1018.1
20260831224250 33 138 3.2 6.4 0.00 0.00 0.00 60 1018.2
20260831223244 34 136 1.6 4.8 0.00 0.00 0.00 60 1018.1